Flag for U.S.A. Weather past 2 weeks in Rockford, Illinois, U.S.A.

Now
66 °F

Fog.


Feels Like: 66 °F
Forecast: 64 / 78 °F
Wind: 10 mph from East

Location: Greater Rockford Airport

Current Time: May 24, 2015 at 8:43:15 PM

Latest Report: May 24, 2015 at 7:54 PM


Visibility: 4 mi

Pressure: 29.88 "Hg

Humidity: 87%

Dew point: 62 °F

Location of RockfordLocation

Historic Weather in Rockford — Graph

°F

Rockford temperature yesterday

Maximum temperature yesterday: 80 °F (at 3:54 PM)
Minimum temperature yesterday: 46 °F (at 4:54 AM)
Average temperature yesterday: 66 °F

Past Weeks' High & Low Weather Summary

 TemperatureHumidityPressure
High82 °F (May 17, 2:54 PM)94% (May 16, 7:54 AM)30.53 "Hg (May 16, 7:54 AM)
Low39 °F (May 13, 3:54 AM)21% (May 23, 4:54 PM)29.77 "Hg (May 11, 2:54 PM)
Average59 °F66%30.11 "Hg
* Reported May 9 6:54 PM — May 24 6:54 PM, Rockford, Weather by CustomWeather, © 2015

Note: Actual official high and low records may vary slightly from our data, if they occured in-between our weather recording intervals... More about our weather records

Advertising

Rockford weather history for previous 24 hours

 ConditionsComfort  
Time TempWeatherWind HumidityBarometerVisibility
6:54 PM
Sun, May 24
66 °FThunderstorms. Cloudy.5 mph84%29.92 "Hg5 mi
5:54 PM69 °FPartly sunny.12 mph79%29.91 "Hg7 mi
4:54 PM69 °FMostly cloudy.9 mph79%29.95 "Hg7 mi
3:54 PM68 °FLight rain. Mostly cloudy.13 mph82%29.97 "Hg10 mi
2:54 PM68 °FLight rain. Mostly cloudy.7 mph70%30.01 "Hg4 mi
1:54 PM69 °FMore clouds than sun.13 mph68%30.02 "Hg10 mi
12:54 PM70 °FCloudy.13 mph59%30.05 "Hg10 mi
11:54 AM68 °FBroken clouds.10 mph63%30.09 "Hg10 mi
10:54 AM65 °FLight rain. More clouds than sun.9 mph73%30.12 "Hg10 mi
9:54 AM62 °FLight rain. Overcast.6 mph80%30.15 "Hg10 mi
8:54 AM63 °FLight rain. Overcast.3 mph73%30.16 "Hg10 mi
7:54 AM62 °FDrizzle. Overcast.8 mph73%30.14 "Hg10 mi
6:54 AM63 °FBroken clouds.5 mph68%30.16 "Hg10 mi
5:54 AM63 °FMostly cloudy.12 mph63%30.17 "Hg10 mi
4:54 AM62 °FMostly cloudy.No wind65%30.18 "Hg10 mi
3:54 AM63 °FMostly cloudy.No wind58%30.18 "Hg10 mi
2:54 AM62 °FOvercast.5 mph62%30.19 "Hg10 mi
1:54 AM60 °FOvercast.6 mph69%30.17 "Hg10 mi
12:54 AM60 °FOvercast.No wind72%30.18 "Hg10 mi
11:54 PM
Sat, May 23
61 °FPassing clouds.No wind65%30.18 "Hg10 mi
10:54 PM64 °FPassing clouds.No wind58%30.20 "Hg10 mi
9:54 PM66 °FPassing clouds.3 mph50%30.19 "Hg10 mi
8:54 PM71 °FScattered clouds.5 mph39%30.17 "Hg10 mi
Weather by CustomWeather, © 2015

See weather overviewHow to use our weather pages